x

9087023 - Ludington, Mi (ldtm4) Weather Station

1:30am - Wed 1st Jul 2015 All times are CDT. -5 hours from GMT.

  • Wind
    6mph, 14mph gusts
  • Air Temp 53°f
  • Sea Pressure 1012.4mb
  • 9087023 - Ludington, Mi
  • 9087023 - Ludington, Mi

More Historic Weather Station data

Upgrade to MSW Pro to gain access to the past 30 days of data for over 8000 Wavebouys and Weather Stations around the globe.

Join Pro

Comparision Forecast

View Surf forecast
   
Wed 07/01 1:30am 6 14 mph 1012.4mb 53f
1:24am 7 11 mph 1012.4mb 53f
1:18am 6 10 mph 1012.5mb 53f
1:12am 5 11 mph 1012.4mb 53f
1:06am 7 10 mph 1012.4mb 53f
1:00am 5 9 mph 1012.4mb 54f
12:54am 3 8 mph 1012.5mb 54f
12:48am 7 10 mph 1012.5mb 54f
12:42am 7 10 mph 1012.5mb 54f
12:36am 7 10 mph 1012.5mb 54f
12:30am 9 13 mph 1012.6mb 54f
12:24am 5 11 mph 1012.5mb 54f
12:18am 8 15 mph 1012.5mb 54f
12:12am 7 15 mph 1012.5mb 54f
12:06am 6 11 mph 1012.4mb 54f
12:00am 7 10 mph 1012.6mb 54f
Tue 06/30 11:54pm 9 11 mph 1012.6mb 54f
11:48pm 3 14 mph 1012.7mb 54f
11:42pm 9 15 mph 1012.6mb 54f
11:36pm 5 11 mph 1012.6mb 54f
11:30pm 3 11 mph 1012.7mb 54f
11:24pm 5 9 mph 1012.6mb 54f
11:18pm 6 13 mph 1012.6mb 54f
11:12pm 6 14 mph 1012.5mb 54f
11:06pm 5 9 mph 1012.6mb 54f
11:00pm 6 13 mph 1012.6mb 54f
10:54pm 6 13 mph 1012.7mb 54f
10:48pm 6 13 mph 1012.6mb 54f
10:42pm 7 9 mph 1012.6mb 54f
10:36pm 6 11 mph 1012.6mb 54f
10:30pm 8 11 mph 1012.5mb 54f
10:24pm 7 13 mph 1012.5mb 54f
10:18pm 10 14 mph 1012.6mb 54f
10:12pm 10 15 mph 1012.5mb 54f
10:06pm 8 14 mph 1012.5mb 54f
10:00pm 8 15 mph 1012.5mb 54f
9:54pm 7 13 mph 1012.6mb 54f
9:48pm 8 14 mph 1012.6mb 54f
9:42pm 8 13 mph 1012.5mb 55f
9:36pm 7 14 mph 1012.5mb 55f
9:30pm 6 11 mph 1012.5mb 55f
9:24pm 6 13 mph 1012.5mb 55f
9:18pm 7 11 mph 1012.5mb 55f
9:12pm 6 10 mph 1012.4mb 55f
9:06pm 8 13 mph 1012.3mb 55f
9:00pm 6 11 mph 1012.2mb 55f
8:54pm 7 16 mph 1012.1mb 55f
Sat 06/27 1:18pm 7 15 mph 1015.5mb 71f
1:12pm 7 13 mph 1015.5mb 71f
1:06pm 7 13 mph 1015.5mb 71f
1:00pm 7 10 mph 1015.6mb 72f
12:54pm 7 18 mph 1015.6mb 75f
12:48pm 7 14 mph 1015.6mb 74f
12:42pm 7 14 mph 1015.6mb 75f
12:36pm 10 15 mph 1015.6mb 74f
12:30pm 9 18 mph 1015.7mb 75f
12:24pm 8 14 mph 1015.7mb 75f
12:18pm 7 14 mph 1015.8mb 75f
12:12pm 6 14 mph 1015.8mb 75f
12:06pm 9 15 mph 1015.7mb 74f
12:00pm 9 16 mph 1015.8mb 74f
11:54am 7 15 mph 1015.9mb 74f
11:48am 10 14 mph 1015.9mb 74f
11:42am 7 13 mph 1015.9mb 74f
11:36am 8 15 mph 1015.9mb 73f
11:30am 11 15 mph 1015.9mb 73f
11:24am 10 16 mph 1015.8mb 73f
11:18am 10 14 mph 1015.9mb 73f
11:12am 8 14 mph 1015.9mb 74f
11:06am 10 16 mph 1016mb 73f
11:00am 8 16 mph 1016mb 73f
10:54am 9 14 mph 1016mb 73f
10:48am 6 11 mph 1016mb 73f
10:42am 9 14 mph 1015.9mb 72f
10:36am 9 13 mph 1016mb 72f
10:30am 6 13 mph 1016mb 72f
10:24am 8 11 mph 1016mb 71f
10:18am 6 9 mph 1016mb 71f
10:12am 6 10 mph 1016mb 71f
10:06am 8 9 mph 1016mb 71f
10:00am 7 11 mph 1016.1mb 71f
9:54am 7 11 mph 1016.2mb 70f
9:48am 5 10 mph 1016.2mb 70f
9:42am 6 9 mph 1016.2mb 70f
9:36am 8 11 mph 1016.2mb 69f
9:30am 6 11 mph 1016.3mb 70f
9:24am 6 10 mph 1016.3mb 69f
9:18am 6 8 mph 1016.4mb 69f
9:12am 5 13 mph 1016.4mb 68f
9:06am 7 10 mph 1016.4mb 67f
9:00am 7 13 mph 1016.4mb 67f
8:54am 5 8 mph 1016.4mb 67f
8:48am 6 8 mph 1016.5mb 66f
8:42am 6 9 mph 1016.5mb 65f
8:36am 6 9 mph 1016.5mb 65f
8:30am 5 9 mph 1016.4mb 65f
8:24am 5 10 mph 1016.4mb 64f
8:18am 6 10 mph 1016.4mb 63f
8:12am 7 10 mph 1016.4mb 62f
8:06am 7 10 mph 1016.5mb 62f
8:00am 7 10 mph 1016.5mb 61f
7:54am 6 9 mph 1016.6mb 61f
7:48am 7 10 mph 1016.6mb 60f
7:42am 5 11 mph 1016.6mb 60f
7:36am 7 10 mph 1016.7mb 60f